COSMOS 1275 DEB, 13817

Orbit data source: Space-Track

COSMOS 1275 DEB, 13817 is space debris in LEO originally from a launch on Thu, 04 Jun 1981 UTC launched from the Plesetsk Missile And Space Complex (PKMTR). Debris objects in space refer to the collection of defunct objects orbiting the Earth. Examples of debris include non-operational satellites, rocket bodies, and fragments generated from explosions, collisions, or faulty payload assembly.

Loading next visibility...
Identifier
13817, 1981-053HM
Orbit
LEO
Country
Flag of CISCIS
Related business
Manufacturer
Unknown
Mission
Spacecraft
Bus & Motor
Unknown
Mass
Unknown
Launch date (UTC)
1981-06-04 (44 years ago)
Launch vehicle
Unknown
Launch site
Plesetsk Missile And Space Complex (PKMTR)
Object type
Payload
Rocket body
Debris
Shape & HBR
Unknown shape, 0.1 m
Radar Cross Section
Small (<0.1 m²)

Expand to show TLE details & history
Last TLE update: 18 hours ago

TLE from 18 hours ago
0 COSMOS 1275 DEB
1 13817U 81053HM  25286.46975236  .00002200  00000-0  13062-2 0  9990
2 13817  82.9404 110.3151 0021758  13.0445 347.1287 14.07005692221260
Epoch: 2025-10-13T11:16Z
TLE epoch observation values (Epoch: 2025-10-13T11:16:26.603Z)
Latitude
-0.00005°
Longitude
-81.06783°
Altitude
857.206 km
Speed
7.432 km/s
True Right ascension
07h 21m 15s
True Declination
0° 00' 00"
Sunlit
Object was in daylight at epoch
Visualization orbit readout
Latitude
Unknown
Longitude
Unknown
Altitude
Unknown
Speed
Unknown
Apparent Right ascension
Unknown
Apparent Declination
Unknown
Sunlit
N/A
Visualization observer readout
Local Sidereal Time
23:46:23
Azimuth
Unknown
Elevation
Unknown
Doppler factor
Unknown
Orbital elements
Apogee altitude
882.504 km
Perigee altitude
850.978 km
Semi-major axis
7,244.878 km
Eccentricity
0.00218
Inclination
82.9404°
RAAN
110.3151°
Arg. of periapsis
13.0445°
True anomaly
347.07301°
Mean anomaly
347.1287°
Eccentric anomaly
347.10087°
Mean motion
3.51963 °/min
Orbital period
102.28 mins
BSTAR
0.0013062
Loading maneuver chart data...
Computing Atmospheric mass density...
Loading historical data...
Loading historical data...
Loading historical data...
Loading historical data...
Loading historical data...
Loading historical data...
Loading historical data...

Documentation

Showing up to 5 results
|